Location: Martz Observatory
(42.0083°N, 79.0667°W)
Time: 13:05:07
(UTC-05:00)

Meteor 1-23 Rocket - Visible Passes

Search period start: 01 March 2017 00:00
Search period end: 11 March 2017 00:00
Orbit: 840 x 886 km, 81.3° (Epoch: 01 March)

Date Brightness Start Highest point End Pass type
(mag) Time Alt. Az. Time Alt. Az. Time Alt. Az.
01 Mar 4.3 19:04:44 10° N 19:10:33 90° W 19:16:17 10° S visible
01 Mar 7.3 20:51:00 10° WNW 20:52:47 11° W 20:54:33 10° W visible
02 Mar 4.3 18:56:24 10° N 19:02:13 90° NE 19:07:57 10° S visible
02 Mar 7.4 20:42:36 10° WNW 20:44:27 12° W 20:46:18 10° W visible
03 Mar 4.3 18:48:04 10° N 18:53:54 89° E 18:59:36 10° S visible
03 Mar 7.4 20:34:13 10° WNW 20:36:08 12° W 20:38:03 10° W visible
04 Mar 4.3 18:39:45 10° N 18:45:34 88° E 18:51:16 10° S visible
04 Mar 7.4 20:25:49 10° WNW 20:27:49 12° W 20:29:48 10° WSW visible
05 Mar 7.5 06:11:07 10° ESE 06:14:15 15° E 06:17:22 10° NE visible
05 Mar 4.3 18:31:26 10° N 18:37:14 87° E 18:42:56 10° S visible
05 Mar 7.5 20:17:26 10° WNW 20:19:29 12° W 20:21:33 10° WSW visible
06 Mar 7.5 06:02:51 10° ESE 06:05:55 15° E 06:09:01 10° NE visible
06 Mar 7.5 20:09:03 10° WNW 20:11:10 12° W 20:13:17 10° WSW visible
07 Mar 7.6 05:54:34 10° ESE 05:57:37 15° E 06:00:39 10° NE visible
07 Mar 7.5 20:00:39 10° WNW 20:02:51 12° W 20:05:01 10° WSW visible
08 Mar 7.6 05:46:18 10° ESE 05:49:17 14° E 05:52:17 10° NE visible
08 Mar 7.6 19:52:17 10° WNW 19:54:31 12° W 19:56:45 10° WSW visible
09 Mar 7.6 05:38:01 10° ESE 05:40:58 14° E 05:43:54 10° NE visible
09 Mar 7.6 19:43:54 10° WNW 19:46:12 13° W 19:48:30 10° WSW visible
10 Mar 7.7 05:29:45 10° ESE 05:32:38 14° E 05:35:32 10° NE visible
10 Mar 7.7 19:35:31 10° WNW 19:37:52 13° W 19:40:13 10° WSW visible
